FW6397 Weather Reports


time (UTC)temp
C
wind
direction
speed
KPH
gust
KPH
rain 1hr
cm
rain 24hr
cm
rain mn
cm
humidity
%
barometer
mb
20210414102837 17 352 3.2 8.0 0.00 0.00 0.00 27 1007.9
20210414102458 17 352 3.2 6.4 0.00 0.00 0.00 25 1007.8
20210414101719 18 352 1.6 6.4 0.00 0.00 0.00 22 1007.8
20210414101112 18 347 1.6 6.4 0.00 0.00 0.00 21 1007.8
20210414100543 18 352 1.6 8.0 0.00 0.00 0.00 21 1007.7
20210414100109 18 352 3.2 9.7 0.00 0.00 0.00 22 1007.7
20210414095853 18 352 4.8 19.3 0.00 0.00 0.00 22 1007.6
20210414095253 18 352 3.2 19.3 0.00 0.00 0.00 23 1007.6
20210414094614 18 352 6.4 12.9 0.00 0.00 0.00 25 1007.6
20210414094038 18 352 3.2 9.7 0.00 0.00 0.00 26 1007.6
20210414093537 18 352 4.8 9.7 0.00 0.00 0.00 26 1007.5
20210414093145 18 352 3.2 6.4 0.00 0.00 0.00 26 1007.5
20210414092855 18 352 3.2 6.4 0.00 0.00 0.00 27 1007.5
20210414092439 18 352 3.2 8.0 0.00 0.00 0.00 27 1007.5
20210414091553 19 352 4.8 8.0 0.00 0.00 0.00 27 1007.4
20210414091053 20 352 3.2 14.5 0.00 0.00 0.00 27 1007.4
20210414090539 20 352 6.4 20.9 0.00 0.00 0.00 25 1007.6
20210414090518 20 352 4.8 20.9 0.00 0.00 0.00 25 1007.6
20210414090122 20 352 11.3 24.1 0.00 0.00 0.00 25 1007.6
20210414085817 20 352 9.7 24.1 0.00 0.00 0.00 25 1007.7
20210414085334 20 352 8.0 20.9 0.00 0.00 0.00 26 1007.8
20210414084639 20 352 9.7 20.9 0.00 0.00 0.00 26 1007.8
20210414084040 20 352 12.9 19.3 0.00 0.00 0.00 26 1007.8
20210414083534 19 352 11.3 20.9 0.00 0.00 0.00 27 1008.0
20210414083113 19 352 4.8 9.7 0.00 0.00 0.00 29 1008.1
20210414082744 19 352 6.4 9.7 0.00 0.00 0.00 28 1008.2
20210414082249 19 352 4.8 9.7 0.00 0.00 0.00 27 1008.1
20210414081559 18 352 3.2 6.4 0.00 0.00 0.00 28 1008.3
20210414081029 19 352 1.6 6.4 0.00 0.00 0.00 27 1008.2
20210414080633 19 352 1.6 6.4 0.00 0.00 0.00 27 1008.2
20210414080055 20 352 0.0 4.8 0.00 0.00 0.00 26 1008.2
20210414075746 20 352 1.6 6.4 0.00 0.00 0.00 26 1008.2
20210414075356 20 352 1.6 6.4 0.00 0.00 0.00 26 1008.3
20210414074605 20 352 1.6 8.0 0.00 0.00 0.00 26 1008.2
20210414074043 20 352 3.2 12.9 0.00 0.00 0.00 25 1008.2
20210414073531 20 352 4.8 12.9 0.00 0.00 0.00 25 1008.2
20210414073128 20 352 4.8 9.7 0.00 0.00 0.00 25 1008.2
20210414072833 20 352 3.2 14.5 0.00 0.00 0.00 25 1008.2
20210414072350 20 352 6.4 17.7 0.00 0.00 0.00 25 1008.2
20210414071535 20 352 6.4 17.7 0.00 0.00 0.00 25 1008.2
20210414071038 20 352 8.0 17.7 0.00 0.00 0.00 25 1008.2
20210414070521 21 352 6.4 19.3 0.00 0.00 0.00 24 1008.1
20210414070123 21 352 8.0 19.3 0.00 0.00 0.00 24 1008.0
20210414065924 21 352 8.0 16.1 0.00 0.00 0.00 25 1008.0
20210414065539 21 352 6.4 16.1 0.00 0.00 0.00 25 1008.0
20210414064546 21 352 8.0 16.1 0.00 0.00 0.00 25 1007.9
20210414064029 21 352 4.8 9.7 0.00 0.00 0.00 26 1007.9
20210414063517 21 352 1.6 14.5 0.00 0.00 0.00 26 1007.9
20210414063103 21 352 4.8 14.5 0.00 0.00 0.00 26 1007.8
20210414062756 21 352 1.6 12.9 0.00 0.00 0.00 26 1007.8
20210414062233 21 352 4.8 12.9 0.00 0.00 0.00 26 1007.7
20210414061521 21 352 6.4 12.9 0.00 0.00 0.00 26 1007.6
20210414061023 21 352 3.2 12.9 0.00 0.00 0.00 26 1007.4
20210414060529 21 352 3.2 20.9 0.00 0.00 0.00 26 1007.4
20210414060229 21 352 11.3 20.9 0.00 0.00 0.00 26 1007.3
20210414055940 22 352 4.8 17.7 0.00 0.00 0.00 26 1007.2
20210414055153 22 352 6.4 17.7 0.00 0.00 0.00 26 1007.2
20210414054530 22 352 11.3 22.5 0.00 0.00 0.00 25 1007.3
20210414054032 22 352 11.3 20.9 0.00 0.00 0.00 25 1007.3
20210414053029 22 352 6.4 20.9 0.00 0.00 0.00 25 1007.2
20210414052832 22 352 6.4 16.1 0.00 0.00 0.00 25 1007.1
20210414052349 22 352 8.0 19.3 0.00 0.00 0.00 25 1007.0
20210414051517 22 352 8.0 14.5 0.00 0.00 0.00 26 1006.9
20210414051020 22 352 3.2 9.7 0.00 0.00 0.00 26 1006.9
20210414050513 22 352 3.2 17.7 0.00 0.00 0.00 25 1006.9
20210414050240 23 352 4.8 17.7 0.00 0.00 0.00 25 1006.8
20210414050041 23 352 8.0 16.1 0.00 0.00 0.00 25 1006.8
20210414045740 23 352 4.8 14.5 0.00 0.00 0.00 25 1006.8
20210414044526 23 352 4.8 9.7 0.00 0.00 0.00 25 1006.6
20210414044022 23 352 3.2 6.4 0.00 0.00 0.00 25 1006.6
20210414043514 23 352 1.6 6.4 0.00 0.00 0.00 25 1006.6
20210414043047 23 352 3.2 9.7 0.00 0.00 0.00 25 1006.4
20210414042850 23 352 1.6 9.7 0.00 0.00 0.00 25 1006.3
20210414042244 23 352 0.0 8.0 0.00 0.00 0.00 25 1006.4
20210414041523 23 352 3.2 8.0 0.00 0.00 0.00 25 1006.3
20210414041035 23 352 1.6 8.0 0.00 0.00 0.00 25 1006.2
20210414040637 23 352 3.2 8.0 0.00 0.00 0.00 25 1006.2
20210414040242 23 352 3.2 12.9 0.00 0.00 0.00 25 1006.2
20210414035958 23 352 4.8 12.9 0.00 0.00 0.00 25 1006.2
20210414035308 23 352 4.8 14.5 0.00 0.00 0.00 26 1006.1
20210414034531 23 352 4.8 14.5 0.00 0.00 0.00 26 1006.0
20210414034023 23 352 4.8 14.5 0.00 0.00 0.00 26 1006.0
20210414033548 23 352 3.2 12.9 0.00 0.00 0.00 26 1006.0
20210414033346 23 352 4.8 16.1 0.00 0.00 0.00 25 1005.9
20210414033116 24 352 8.0 19.3 0.00 0.00 0.00 25 1005.9
20210414032513 24 352 11.3 19.3 0.00 0.00 0.00 25 1006.2
20210414031534 24 352 4.8 17.7 0.00 0.00 0.00 25 1006.1
20210414031035 24 352 9.7 17.7 0.00 0.00 0.00 25 1006.0
20210414030512 25 352 6.4 17.7 0.00 0.00 0.00 24 1005.9
20210414030052 25 352 9.7 19.3 0.00 0.00 0.00 24 1005.7
20210414025918 25 352 11.3 19.3 0.00 0.00 0.00 23 1005.6
20210414025337 25 352 8.0 24.1 0.00 0.00 0.00 21 1005.5
20210414024527 25 352 12.9 24.1 0.00 0.00 0.00 16 1005.4
20210414024019 25 352 12.9 22.5 0.00 0.00 0.00 16 1005.4
20210414023515 26 352 11.3 29.0 0.00 0.00 0.00 15 1005.2
20210414023103 26 352 16.1 29.0 0.00 0.00 0.00 15 1005.1
20210414021646 26 352 12.9 25.7 0.00 0.00 0.00 13 1005.1
20210414021141 26 352 12.9 25.7 0.00 0.00 0.00 12 1005.0
20210414020601 26 352 12.9 24.1 0.00 0.00 0.00 11 1005.0
20210414020134 26 352 14.5 22.5 0.00 0.00 0.00 11 1005.0
20210414015957 26 352 11.3 27.4 0.00 0.00 0.00 12 1005.0
20210414015741 26 352 16.1 27.4 0.00 0.00 0.00 12 1005.0
20210414014619 26 352 16.1 27.4 0.00 0.00 0.00 12 1005.0
20210414014130 26 352 12.9 29.0 0.00 0.00 0.00 12 1005.0
20210414013621 27 352 19.3 30.6 0.00 0.00 0.00 12 1005.0
20210414013027 27 352 12.9 27.4 0.00 0.00 0.00 11 1004.8
20210414011633 27 352 12.9 24.1 0.00 0.00 0.00 10 1004.8
20210414011141 27 352 12.9 30.6 0.00 0.00 0.00 10 1004.7
20210414010558 27 347 16.1 29.0 0.00 0.00 0.00 10 1004.5
20210414010303 27 352 16.1 24.1 0.00 0.00 0.00 10 1004.5
20210414005935 28 352 9.7 22.5 0.00 0.00 0.00 10 1004.4
20210414004725 28 352 14.5 22.5 0.00 0.00 0.00 10 1004.4
20210414004122 28 352 12.9 29.0 0.00 0.00 0.00 10 1004.3
20210414003621 28 352 14.5 29.0 0.00 0.00 0.00 9 1004.3
20210414003310 28 352 14.5 29.0 0.00 0.00 0.00 10 1004.2
20210414002556 28 352 17.7 27.4 0.00 0.00 0.00 9 1004.1
20210414001641 28 352 8.0 25.7 0.00 0.00 0.00 9 1004.2
20210414001104 28 352 17.7 29.0 0.00 0.00 0.00 8 1004.0
20210414000616 28 352 14.5 29.0 0.00 0.00 0.00 8 1004.1
20210414000248 28 352 16.1 27.4 0.00 0.00 0.00 9 1004.1
20210413235857 28 352 16.1 30.6 0.00 0.00 0.00 8 1004.2
20210413234640 28 352 19.3 30.6 0.00 0.00 0.00 8 1004.1
20210413234129 29 352 16.1 32.2 0.00 0.00 0.00 8 1003.9
20210413233621 29 352 19.3 32.2 0.00 0.00 0.00 8 1003.9
20210413233100 29 352 14.5 32.2 0.00 0.00 0.00 8 1004.0
20210413232545 29 352 19.3 32.2 0.00 0.00 0.00 8 1004.0
20210413231641 29 352 14.5 29.0 0.00 0.00 0.00 7 1003.9
20210413231055 30 352 11.3 22.5 0.00 0.00 0.00 8 1003.9
20210413230558 29 352 4.8 19.3 0.00 0.00 0.00 8 1004.0
20210413230346 28 352 8.0 25.7 0.00 0.00 0.00 8 1004.1
20210413230032 29 352 14.5 32.2 0.00 0.00 0.00 8 1004.3
20210413225751 29 352 20.9 32.2 0.00 0.00 0.00 8 1004.3
20210413224837 29 352 16.1 24.1 0.00 0.00 0.00 8 1004.1
20210413224055 30 352 8.0 25.7 0.00 0.00 0.00 8 1004.1
20210413223645 30 352 16.1 25.7 0.00 0.00 0.00 8 1004.1
20210413223136 29 352 8.0 27.4 0.00 0.00 0.00 9 1004.2
20210413222950 29 352 12.9 27.4 0.00 0.00 0.00 9 1004.3
20210413222713 29 352 12.9 27.4 0.00 0.00 0.00 8 1004.3
20210413221627 29 347 17.7 27.4 0.00 0.00 0.00 7 1004.4
20210413221051 29 352 16.1 30.6 0.00 0.00 0.00 7 1004.3
20210413220549 30 352 16.1 33.8 0.00 0.00 0.00 7 1004.4
20210413220432 29 352 20.9 33.8 0.00 0.00 0.00 7 1004.4
20210413220123 29 352 19.3 30.6 0.00 0.00 0.00 7 1004.3
20210413215658 30 352 19.3 35.4 0.00 0.00 0.00 7 1004.4
20210413214626 30 352 24.1 35.4 0.00 0.00 0.00 6 1004.4
20210413214045 30 352 12.9 29.0 0.00 0.00 0.00 7 1004.3
20210413213557 30 352 16.1 30.6 0.00 0.00 0.00 6 1004.4
20210413213114 30 352 22.5 30.6 0.00 0.00 0.00 6 1004.5
20210413212926 30 352 20.9 29.0 0.00 0.00 0.00 6 1004.7
20210413212617 30 352 12.9 32.2 0.00 0.00 0.00 7 1004.6
20210413211654 30 352 19.3 33.8 0.00 0.00 0.00 7 1004.8
20210413211041 29 352 8.0 30.6 0.00 0.00 0.00 7 1004.7
20210413210628 29 352 20.9 30.6 0.00 0.00 0.00 8 1004.9
20210413210107 29 352 11.3 25.7 0.00 0.00 0.00 8 1004.8
20210413205832 29 352 16.1 30.6 0.00 0.00 0.00 8 1004.9
20210413205344 30 352 17.7 38.6 0.00 0.00 0.00 8 1005.1
20210413204631 29 352 17.7 38.6 0.00 0.00 0.00 8 1005.1
20210413204038 29 352 16.1 27.4 0.00 0.00 0.00 8 1005.2
20210413203846 29 352 12.9 25.7 0.00 0.00 0.00 8 1005.2
20210413203221 29 352 12.9 30.6 0.00 0.00 0.00 8 1005.5
20210413202959 29 352 14.5 30.6 0.00 0.00 0.00 9 1005.5
20210413202415 29 352 17.7 30.6 0.00 0.00 0.00 8 1005.5
20210413201650 29 352 9.7 32.2 0.00 0.00 0.00 8 1005.5
20210413200540 29 352 11.3 22.5 0.00 0.00 0.00 9 1005.7
20210413200318 29 352 12.9 22.5 0.00 0.00 0.00 9 1005.8
20210413195339 28 352 17.7 27.4 0.00 0.00 0.00 9 1006.0
20210413194557 28 352 11.3 25.7 0.00 0.00 0.00 9 1006.1
20210413194042 28 352 3.2 25.7 0.00 0.00 0.00 9 1006.2
20210413193546 28 352 11.3 25.7 0.00 0.00 0.00 9 1006.1
20210413193155 28 352 9.7 27.4 0.00 0.00 0.00 9 1006.2
20210413192950 28 352 14.5 27.4 0.00 0.00 0.00 8 1006.3
20210413192657 28 352 17.7 30.6 0.00 0.00 0.00 8 1006.3
20210413191624 28 352 17.7 30.6 0.00 0.00 0.00 8 1006.3
20210413191031 28 352 8.0 24.1 0.00 0.00 0.00 7 1006.2
20210413190537 28 352 9.7 24.1 0.00 0.00 0.00 8 1006.4
20210413190130 28 352 11.3 20.9 0.00 0.00 0.00 8 1006.4
20210413185923 27 352 9.7 19.3 0.00 0.00 0.00 8 1006.5
20210413185422 27 352 4.8 32.2 0.00 0.00 0.00 8 1006.6
20210413184539 27 352 6.4 32.2 0.00 0.00 0.00 8 1006.8
20210413184102 27 352 14.5 25.7 0.00 0.00 0.00 7 1006.8
20210413183535 27 352 14.5 27.4 0.00 0.00 0.00 8 1006.9
20210413183048 27 352 9.7 19.3 0.00 0.00 0.00 9 1006.9
20210413182852 27 352 9.7 20.9 0.00 0.00 0.00 8 1006.9
20210413182234 27 352 14.5 20.9 0.00 0.00 0.00 8 1007.0
20210413181622 27 352 6.4 24.1 0.00 0.00 0.00 9 1007.0
20210413181034 27 352 12.9 24.1 0.00 0.00 0.00 9 1007.1
20210413180528 26 352 11.3 22.5 0.00 0.00 0.00 9 1007.2
20210413180042 27 352 12.9 22.5 0.00 0.00 0.00 9 1007.1
20210413175825 27 352 4.8 22.5 0.00 0.00 0.00 9 1007.2
20210413175258 26 352 12.9 22.5 0.00 0.00 0.00 8 1007.2
20210413174528 26 352 9.7 22.5 0.00 0.00 0.00 9 1007.2
20210413174022 26 352 9.7 19.3 0.00 0.00 0.00 10 1007.3
20210413173524 26 352 11.3 20.9 0.00 0.00 0.00 11 1007.5
20210413173049 26 352 8.0 24.1 0.00 0.00 0.00 14 1007.3
20210413172915 26 352 14.5 40.2 0.00 0.00 0.00 13 1007.3
20210413172526 25 352 12.9 40.2 0.00 0.00 0.00 14 1007.3
20210413171552 25 352 6.4 25.7 0.00 0.00 0.00 13 1007.5
20210413171025 25 352 16.1 25.7 0.00 0.00 0.00 14 1007.6
20210413170519 25 352 12.9 29.0 0.00 0.00 0.00 14 1007.6
20210413170211 25 352 19.3 29.0 0.00 0.00 0.00 14 1007.6
20210413165903 25 352 11.3 22.5 0.00 0.00 0.00 17 1007.6
20210413165322 24 352 8.0 24.1 0.00 0.00 0.00 18 1007.8
20210413164528 24 352 14.5 24.1 0.00 0.00 0.00 18 1007.9
20210413164035 23 352 8.0 20.9 0.00 0.00 0.00 19 1007.9
20210413163511 23 352 12.9 20.9 0.00 0.00 0.00 21 1007.9
20210413163223 23 352 12.9 20.9 0.00 0.00 0.00 21 1008.0
20210413163018 23 352 9.7 19.3 0.00 0.00 0.00 21 1008.0
20210413162651 23 352 11.3 19.3 0.00 0.00 0.00 22 1008.1
20210413161514 23 352 9.7 22.5 0.00 0.00 0.00 22 1008.1
20210413161021 22 352 9.7 22.5 0.00 0.00 0.00 23 1008.3
20210413160530 22 352 6.4 17.7 0.00 0.00 0.00 24 1008.2
20210413160217 22 352 11.3 19.3 0.00 0.00 0.00 24 1008.2
20210413155953 22 352 11.3 17.7 0.00 0.00 0.00 24 1008.3
20210413155359 22 352 8.0 19.3 0.00 0.00 0.00 26 1008.3
20210413154519 22 352 9.7 22.5 0.00 0.00 0.00 26 1008.3
20210413154010 22 352 11.3 25.7 0.00 0.00 0.00 26 1008.3
20210413153242 22 352 9.7 20.9 0.00 0.00 0.00 26 1008.2
20210413152957 22 352 9.7 19.3 0.00 0.00 0.00 26 1008.3
20210413152630 22 352 11.3 19.3 0.00 0.00 0.00 26 1008.1
20210413151749 21 352 8.0 19.3 0.00 0.00 0.00 25 1008.2
20210413151058 21 352 6.4 17.7 0.00 0.00 0.00 26 1008.1
20210413150342 20 352 3.2 9.7 0.00 0.00 0.00 32 1007.7
20210413150044 19 352 3.2 9.7 0.00 0.00 0.00 33 1007.7
20210413144704 19 352 4.8 12.9 0.00 0.00 0.00 33 1007.8
20210413144054 18 352 4.8 12.9 0.00 0.00 0.00 34 1007.8
20210413143618 18 352 6.4 14.5 0.00 0.00 0.00 34 1007.8
20210413143236 18 352 8.0 14.5 0.00 0.00 0.00 35 1007.6
20210413143042 18 352 8.0 14.5 0.00 0.00 0.00 36 1007.5
20210413142448 17 352 6.4 16.1 0.00 0.00 0.00 37 1007.5
20210413141651 17 352 9.7 16.1 0.00 0.00 0.00 37 1007.6
20210413141058 17 352 6.4 12.9 0.00 0.00 0.00 38 1007.6
20210413140553 17 352 6.4 14.5 0.00 0.00 0.00 38 1007.7
20210413140200 16 352 6.4 14.5 0.00 0.00 0.00 39 1007.8
20210413140057 16 352 4.8 9.7 0.00 0.00 0.00 40 1007.6
20210413135807 16 352 4.8 9.7 0.00 0.00 0.00 40 1007.5
20210413134711 16 352 3.2 8.0 0.00 0.00 0.00 40 1007.5
20210413134101 16 352 4.8 8.0 0.00 0.00 0.00 40 1007.5
20210413133553 16 352 4.8 9.7 0.00 0.00 0.00 40 1007.5
20210413133234 16 352 4.8 9.7 0.00 0.00 0.00 40 1007.4
20210413132955 16 352 3.2 8.0 0.00 0.00 0.00 41 1007.3
20210413132532 16 352 3.2 8.0 0.00 0.00 0.00 41 1007.1
20210413131657 16 352 3.2 9.7 0.00 0.00 0.00 41 1007.0
20210413131113 16 352 4.8 9.7 0.00 0.00 0.00 40 1007.0
20210413130547 16 352 3.2 6.4 0.00 0.00 0.00 40 1007.0
20210413130142 16 352 3.2 8.0 0.00 0.00 0.00 40 1007.0
20210413130114 16 352 3.2 8.0 0.00 0.00 0.00 40 1007.0
20210413125912 15 352 3.2 9.7 0.00 0.00 0.00 40 1007.0
20210413125127 15 352 4.8 9.7 0.00 0.00 0.00 41 1007.1
20210413124045 15 352 3.2 8.0 0.00 0.00 0.00 41 1007.1
20210413123635 15 352 3.2 8.0 0.00 0.00 0.00 40 1007.0
20210413122943 16 352 0.0 6.4 0.00 0.00 0.00 39 1006.8
20210413121625 16 352 3.2 6.4 0.00 0.00 0.00 39 1006.8
20210413121122 16 352 3.2 4.8 0.00 0.00 0.00 39 1006.7
20210413120548 16 352 1.6 6.4 0.00 0.00 0.00 39 1006.6
20210413120225 16 352 1.6 6.4 0.00 0.00 0.00 39 1006.6
20210413115947 16 352 3.2 6.4 0.00 0.00 0.00 39 1006.5
20210413114624 16 352 3.2 8.0 0.00 0.00 0.00 39 1006.5
20210413114109 16 352 4.8 8.0 0.00 0.00 0.00 38 1006.5
20210413113545 16 352 3.2 4.8 0.00 0.00 0.00 38 1006.4
20210413113120 16 352 1.6 4.8 0.00 0.00 0.00 38 1006.5
20210413112922 17 352 0.0 9.7 0.00 0.00 0.00 37 1006.4
20210413111746 17 352 3.2 9.7 0.00 0.00 0.00 37 1006.4
20210413111057 17 352 3.2 4.8 0.00 0.00 0.00 37 1006.4
20210413110600 17 352 1.6 6.4 0.00 0.00 0.00 36 1006.4
20210413110227 16 352 3.2 6.4 0.00 0.00 0.00 37 1006.3
20210413105913 16 352 1.6 4.8 0.00 0.00 0.00 38 1006.3
20210413104904 16 352 1.6 4.8 0.00 0.00 0.00 38 1006.3
20210413104055 16 352 0.0 4.8 0.00 0.00 0.00 38 1006.3
20210413103716 16 352 1.6 4.8 0.00 0.00 0.00 38 1006.3
20210413103421 16 352 0.0 3.2 0.00 0.00 0.00 37 1006.3
20210413103055 17 352 0.0 4.8 0.00 0.00 0.00 36 1006.3